Flag for Japan Weather past 2 weeks in Fukushima, Japan

Now
76 °F

Mild.


Feels Like: 77 °F
Forecast: 61 / 77 °F
Wind: 6 mph from East

Location: Wakamatsu

Current Time: Jul 3, 2015 at 8:11:53 PM

Latest Report: Jul 3, 2015 at 7:00 PM


Visibility: 13 mi

Pressure: 29.66 "Hg

Humidity: 71%

Dew point: 65 °F

Location of FukushimaLocation

Historic Weather in Fukushima — Graph

°F

Fukushima temperature yesterday

Maximum temperature yesterday: 84 °F (at 3:00 PM)
Minimum temperature yesterday: 65 °F (at 5:00 AM)
Average temperature yesterday: 74 °F

Past Weeks' High & Low Weather Summary

 TemperatureHumidityPressure
High87 °F (Jun 25, 1:00 PM)100% (Jun 21, 4:00 AM)29.93 "Hg (Jun 21, 4:00 AM)
Low59 °F (Jun 20, 4:00 AM)30% (Jun 24, 3:00 PM)29.23 "Hg (Jul 1, 1:00 PM)
Average70 °F77%29.71 "Hg
* Reported Jun 18 6:00 PM — Jul 3 6:00 PM, Fukushima, Weather by CustomWeather, © 2015

Note: Actual official high and low records may vary slightly from our data, if they occured in-between our weather recording intervals... More about our weather records

Advertising

Fukushima weather history for previous 24 hours

 ConditionsComfort  
Time TempWeatherWind HumidityBarometerVisibility
6:00 PM
Fri, Jul 3
78 °FWarm.5 mph67%29.67 "Hg12 mi
5:00 PM79 °FWarm.2 mph61%29.65 "Hg12 mi
4:00 PM79 °FWarm.3 mph62%29.65 "Hg12 mi
3:00 PM79 °FWarm.6 mph60%29.66 "Hg12 mi
2:00 PM78 °FWarm.3 mph62%29.66 "Hg11 mi
1:00 PM76 °FMild.3 mph73%29.68 "Hg11 mi
12:00 PM74 °FMild.2 mph77%29.71 "Hg9 mi
11:00 AM72 °FMild.2 mph81%29.72 "Hg9 mi
10:00 AM71 °FMild.5 mph87%29.72 "Hg7 mi
9:00 AM70 °FMild.6 mph89%29.74 "Hg6 mi
8:00 AM70 °FMild.3 mph87%29.74 "Hg8 mi
7:00 AM69 °FMild.2 mph89%29.75 "Hg8 mi
5:00 AM68 °FMild.3 mph91%29.73 "Hg9 mi
4:00 AM69 °FMild.1 mph90%29.72 "Hg9 mi
3:00 AM69 °FMild.2 mph91%29.71 "Hg9 mi
2:00 AM69 °FMild.2 mph92%29.70 "Hg9 mi
1:00 AM70 °FMild.2 mph91%29.70 "Hg10 mi
12:00 AM70 °FMild.2 mph87%29.69 "Hg11 mi
11:00 PM
Thu, Jul 2
72 °FMild.6 mph79%29.68 "Hg12 mi
10:00 PM72 °FMild.2 mph78%29.68 "Hg12 mi
9:00 PM74 °FMild.6 mph72%29.66 "Hg12 mi
8:00 PM75 °FMild.5 mph66%29.62 "Hg12 mi
Weather by CustomWeather, © 2015

See weather overviewHow to use our weather pages